Simultaneous Nadir Overpasses (SNOs) Predictions

Prediction of SNOs between TERRA and METOP-C Satellite Orbit:

Table of predicted SNOs for the next 14.0 days since TLE Epoch: 10/19/2019
Index Date (TERRA) Time (TERRA) Lat,Lon (TERRA) SZA (TERRA ) Date (METOP-C) Time (METOP-C) Lat,Lon (METOP-C) SZA (METOP-C ) Distance(km) Time Diff (sec)
1 10/19/2019 07:11:23 -81.30, -60.80 85.69 10/19/2019 07:10:44 -81.31, -60.99 85.73 3.22 39
2 10/19/2019 08:00:49 81.31, 106.98 94.35 10/19/2019 08:01:22 81.32, 107.12 94.39 2.48 33
3 10/22/2019 02:45:38 -81.31, 5.82 84.64 10/22/2019 02:45:05 -81.31, 5.70 84.68 2.14 33
4 10/22/2019 03:35:04 81.32, 173.57 95.39 10/22/2019 03:35:44 81.32, 173.41 95.39 2.58 40
5 10/24/2019 22:19:54 -81.31, 72.22 83.66 10/24/2019 22:19:26 -81.32, 72.38 83.65 2.76 28
6 10/24/2019 23:09:20 81.32,-120.07 96.37 10/24/2019 23:10:05 81.32,-119.90 96.42 3.05 45
7 10/27/2019 17:54:09 -81.32, 138.76 82.68 10/27/2019 17:53:47 -81.31, 138.67 82.70 1.65 22
8 10/27/2019 18:43:35 81.32, -53.56 97.34 10/27/2019 18:44:26 81.32, -53.60 97.37 0.57 51
9 10/30/2019 13:28:26 -81.31,-154.93 81.76 10/30/2019 13:28:09 -81.31,-155.05 81.78 2.07 17




NCC Satellite Simultaneous Nadir Overpasses (SNOs) Prediction Service
